Regional Weather Roundup
Issued by NWS Midland/Odessa, TX

Skip options and go directly to product.
Home | Oldest Version | Next Version | Current Version | All | Text Only | Save Text | Print | Product List | Glossary On

Skip product version selection by date and time.   
868
ASUS44 KMAF 291902
RWRMAF
MIDLAND AREA WEATHER ROUNDUP
NATIONAL WEATHER SERVICE MIDLAND TX
200 PM CDT WED OCT 29 2014

...IN SOUTHWEST TEXAS AND SOUTHEAST NEW MEXICO...

CITY           SKY/WX    TMP DP  RH WIND       PRES   REMARKS
ALPINE         SUNNY     74  53  48 E7        30.28F
ANDREWS        FAIR      70  46  42 S6        30.22F
ARTESIA        NOT AVBL
BIG SPRING     SUNNY     74  44  34 SE6       30.23F
CARLSBAD       SUNNY     69  48  47 S10       30.20F
DRYDEN           N/A     79  58  48 E10       30.14F
FORT STOCKTON  SUNNY     71  51  49 SE6       30.20F
GUAD PASS      NOT AVBL
HOBBS          SUNNY     68  45  42 SE10G18   30.24F
MARFA          SUNNY     73  52  46 S7        30.26F
MIDLAND AIRPK  SUNNY     74  46  37 E7        30.22F
MIDLAND INTL   MOSUNNY   72  48  42 MISG      30.20F
ODESSA         SUNNY     72  46  39 E6        30.21F
PECOS          SUNNY     71  50  47 E5        30.19F
PRESIDIO       FAIR      79  53  39 SE3       30.13F
SEMINOLE       SUNNY     69  44  41 SE7       30.25F
SNYDER         SUNNY     68  42  38 SE6       30.22F
WINK           SUNNY     71  48  43 SE7       30.19F
$$
...OTHER STATIONS IN TEXAS...

CITY           SKY/WX    TMP DP  RH WIND       PRES   REMARKS
ABILENE        SUNNY     75  43  31 CALM      30.19F
AMARILLO       SUNNY     67  40  37 S18       30.21F
AUSTIN         CLOUDY    77  62  59 NE8       30.13F
BROWNSVILLE    MOSUNNY   86  66  51 VRB7      30.05F
CORPUS CHRISTI MOSUNNY   87  61  41 E10       30.07F
DALLAS FTW     SUNNY     74  45  35 E12       30.17F
DEL RIO        SUNNY     81  66  60 CALM      30.10F
EL PASO        SUNNY     74  41  30 CALM      30.19F
HOUSTON INT    PTSUNNY   82  68  62 N7        30.08F
LUBBOCK        SUNNY     69  39  33 SE9       30.22F
SAN ANGELO     CLOUDY    75  55  49 E12       30.18F
SAN ANTONIO    PTSUNNY   81  64  56 N8        30.11F
WACO           SUNNY     76  54  46 NE10      30.16F
WICHITA FALLS  NOT AVBL
$$
...OTHER LOCATIONS IN NEW MEXICO...

CITY           SKY/WX    TMP DP  RH WIND       PRES   REMARKS
ALAMAGORDO     NOT AVBL
ALBUQUERQUE    SUNNY     67  18  15 NE5       30.28F
CANNON AFB     SUNNY     69  41  36 S13       30.22F
CLOVIS         SUNNY     66  41  39 SW15G21   30.24F
HOLLOMAN AFB   SUNNY     73  39  29 SE2       30.20F
ROSWELL        SUNNY     67  46  47 S12       30.22F
RUIDOSO        SUNNY     66  32  28 W5        30.33F
SANTA FE       SUNNY     66   9  10 VRB6      30.29F
TRUTH OR CONSE SUNNY     69  39  33 CALM      30.24F
TUCUMCARI      SUNNY     70  39  32 W12G18    30.18F
$$

USA.gov is the U.S. government's official web portal to all federal, state and local government web resources and services.